This demonstration page uses our WeatherBlox Daily Observations layout. Learn more.

Left ArrowRight Arrow

40.92945, -100.16068

Hourly Observations for April 23, 2020

Temp ( °F °C ) Dew Point ( °F °C ) Humidity (%) Winds ( mph kmh ) Pressure ( in mb ) Visibility ( mi km ) Precip ( " mm )
12:15 am 00:15 Clear 47 8.6 37 2.5 66 66 W 8 13 29.79 1009 10 16 0.00 0.00
12:35 am 00:35 Clear 46 7.7 37 2.5 70 70 W 7 11 29.80 1009 10 16 0.00 0.00
12:55 am 00:55 Clear 45 7 36 2.3 72 72 WNW 8 13 29.81 1009 10 16 0.00 0.00
1:15 am 01:15 Clear 43 6.1 36 2.4 77 77 WNW 8 13 29.82 1010 10 16 0.00 0.00
1:35 am 01:35 Clear 44 6.6 36 2.2 74 74 W 6 9 29.81 1010 10 16 0.00 0.00
1:55 am 01:55 Clear 43 6.2 35 1.9 74 74 WNW 5 7 29.81 1009 10 16 0.00 0.00
2:15 am 02:15 Clear 42 5.8 36 2.2 78 78 WNW 9 15 29.81 1009 10 16 0.00 0.00
2:35 am 02:35 Clear 42 5.8 36 2.3 78 78 WNW 7 11 29.81 1009 10 16 0.00 0.00
2:55 am 02:55 Clear 42 5.6 36 2 78 78 WNW 6 9 29.80 1009 10 16 0.00 0.00
3:15 am 03:15 Clear 40 4.2 35 1.6 83 83 WNW 5 7 29.82 1010 10 16 0.00 0.00
3:35 am 03:35 Clear 41 4.9 35 1.7 80 80 W 6 9 29.81 1009 10 16 0.00 0.00
3:55 am 03:55 Clear 39 4.1 35 1.4 83 83 W 8 13 29.82 1010 10 16 0.00 0.00
4:15 am 04:15 Clear 40 4.2 35 1.4 82 82 WNW 7 11 29.82 1010 10 16 0.00 0.00
4:35 am 04:35 Clear 40 4.2 35 1.5 83 83 WNW 9 15 29.82 1010 10 16 0.00 0.00
4:55 am 04:55 Clear 39 3.9 35 1.5 85 85 WNW 7 11 29.82 1010 10 16 0.00 0.00
5:15 am 05:15 Partly Cloudy 38 3.6 34 1.2 85 85 WNW 7 11 29.82 1010 10 16 0.00 0.00
5:35 am 05:35 Partly Cloudy 39 3.8 34 1.2 83 83 WNW 6 9 29.82 1010 10 16 0.00 0.00
5:55 am 05:55 Clear 39 4.1 35 1.8 85 85 W 7 11 29.82 1010 10 16 0.00 0.00
6:15 am 06:15 Clear 39 4 35 1.9 86 86 W 7 11 29.82 1010 10 16 0.00 0.00
6:35 am 06:35 Clear 39 3.8 35 1.7 86 86 W 8 13 29.82 1010 10 16 0.00 0.00
6:55 am 06:55 Partly Cloudy 39 3.9 35 1.8 86 86 W 6 9 29.83 1010 10 16 0.00 0.00
7:15 am 07:15 Partly Cloudy 39 3.7 35 1.9 88 88 NW 3 6 29.83 1010 10 16 0.00 0.00
7:35 am 07:35 Mostly Cloudy 40 4.4 37 2.6 88 88 W 5 7 29.81 1010 10 16 0.00 0.00
7:55 am 07:55 Partly Cloudy 44 6.7 38 3.6 81 81 W 7 11 29.80 1009 10 16 0.00 0.00
8:15 am 08:15 Partly Cloudy 47 8.4 40 4.2 75 75 Calm 29.79 1009 10 16 0.00 0.00
8:35 am 08:35 Partly Cloudy 52 11.1 41 5.2 67 67 WNW 6 9 29.76 1008 10 16 0.00 0.00
8:55 am 08:55 Partly Cloudy 55 12.7 41 5.1 60 60 W 5 7 29.75 1007 10 16 0.00 0.00
9:15 am 09:15 Sunny 57 13.9 41 5.1 56 56 Calm 29.73 1007 10 16 0.00 0.00
9:35 am 09:35 Sunny 60 15.8 42 5.4 50 50 Calm 29.70 1006 10 16 0.00 0.00
9:55 am 09:55 Sunny 63 17.2 42 5.6 47 47 Calm 29.69 1005 10 16 0.00 0.00
10:15 am 10:15 Sunny 65 18.4 41 5.1 42 42 Calm 29.66 1004 10 16 0.00 0.00
10:35 am 10:35 Sunny 67 19.5 40 4.7 38 38 SE 3 6 29.65 1004 10 16 0.00 0.00
10:55 am 10:55 Sunny 69 20.5 41 4.8 36 36 ESE 5 7 29.62 1003 10 16 0.00 0.00
11:15 am 11:15 Sunny 72 22.2 39 4.1 31 31 SW 5 7 29.60 1003 10 16 0.00 0.00
11:35 am 11:35 Sunny 74 23.2 39 3.9 28 28 S 10 17 29.60 1002 10 16 0.00 0.00
11:55 am 11:55 Partly Cloudy 74 23.5 40 4.3 29 29 SSW 14 22 29.58 1002 10 16 0.00 0.00
12:15 pm 12:15 Sunny 73 22.9 40 4.2 30 30 SW 6 9 29.59 1002 10 16 0.00 0.00
12:35 pm 12:35 Sunny 73 22.5 37 3 28 28 SW 10 17 29.58 1002 10 16 0.00 0.00
12:55 pm 12:55 Sunny 73 22.6 37 2.8 27 27 SSW 9 15 29.58 1002 10 16 0.00 0.00
1:15 pm 13:15 Sunny 74 23.2 37 2.7 26 26 SSW 8 13 29.57 1001 10 16 0.00 0.00
1:35 pm 13:35 Sunny 74 23.6 38 3.1 26 26 SSW 7 11 29.55 1001 10 16 0.00 0.00
1:55 pm 13:55 Sunny 75 24.1 38 3.3 26 26 S 13 20 29.54 1000 10 16 0.00 0.00
2:15 pm 14:15 Sunny 74 23.4 36 2.4 25 25 SSW 13 20 29.54 1000 10 16 0.00 0.00
2:35 pm 14:35 Sunny 73 22.8 36 2.2 26 26 W 7 11 29.53 1000 10 16 0.00 0.00
2:55 pm 14:55 Sunny 73 23 37 2.7 26 26 SW 7 11 29.53 1000 10 16 0.00 0.00
3:35 pm 15:35 Partly Cloudy 74 23.4 37 2.9 26 26 S 3 6 29.51 999 10 16 0.00 0.00
3:55 pm 15:55 Sunny 74 23.2 38 3.2 27 27 W 8 13 29.52 1000 10 16 0.00 0.00
4:15 pm 16:15 Partly Cloudy 73 22.8 37 2.6 27 27 W 8 13 29.51 999 10 16 0.00 0.00
4:35 pm 16:35 Partly Cloudy 73 22.9 38 3.4 28 28 WNW 8 13 29.51 999 10 16 0.00 0.00
4:55 pm 16:55 Sunny 72 22.2 39 3.8 30 30 WNW 6 9 29.51 999 10 16 0.00 0.00
5:15 pm 17:15 Sunny 72 22.2 38 3.1 29 29 W 7 11 29.51 999 10 16 0.00 0.00
5:35 pm 17:35 Sunny 72 22.4 40 4.4 31 31 NNW 36 57 29.52 1000 7 11 0.00 0.00
5:55 pm 17:55 Sunny 68 20.2 43 6 40 40 NNE 29 46 29.55 1001 10 16 0.00 0.00
6:15 pm 18:15 Sunny 65 18.2 44 6.8 48 48 NNE 17 28 29.60 1002 10 16 0.00 0.00
6:35 pm 18:35 Sunny 64 17.7 45 7.1 50 50 NNE 23 37 29.60 1002 10 16 0.00 0.00
6:55 pm 18:55 Partly Cloudy 64 17.8 44 6.7 48 48 NE 25 41 29.60 1002 10 16 0.00 0.00
7:15 pm 19:15 Partly Cloudy 63 17.1 44 6.5 50 50 NE 25 41 29.62 1003 10 16 0.00 0.00
7:35 pm 19:35 Sunny 62 16.5 44 6.6 52 52 NE 18 30 29.62 1003 10 16 0.00 0.00
7:55 pm 19:55 Sunny 60 15.8 44 6.8 55 55 NNE 15 24 29.64 1004 10 16 0.00 0.00
8:15 pm 20:15 Sunny 59 14.9 45 7 59 59 NE 13 20 29.66 1004 10 16 0.00 0.00
8:35 pm 20:35 Clear 57 14.1 45 7 63 63 NNE 13 20 29.67 1005 10 16 0.00 0.00
8:55 pm 20:55 Clear 56 13.4 44 6.6 64 64 NE 10 17 29.69 1005 10 16 0.00 0.00
9:15 pm 21:15 Clear 55 12.5 44 6.7 68 68 ENE 10 17 29.71 1006 10 16 0.00 0.00
9:35 pm 21:35 Clear 53 11.5 44 6.5 72 72 NE 9 15 29.72 1006 10 16 0.00 0.00
9:55 pm 21:55 Clear 52 10.9 43 6.3 73 73 NNE 8 13 29.73 1007 10 16 0.00 0.00
10:15 pm 22:15 Clear 50 9.8 43 6 77 77 NE 8 13 29.75 1008 10 16 0.00 0.00
10:35 pm 22:35 Clear 49 9.6 43 6 78 78 NE 9 15 29.75 1008 10 16 0.00 0.00
10:55 pm 22:55 Clear 49 9.4 43 6 80 80 ENE 7 11 29.76 1008 10 16 0.00 0.00
11:15 pm 23:15 Clear 49 9.7 43 6 78 78 NE 3 6 29.76 1008 10 16 0.00 0.00
11:35 pm 23:35 Clear 51 10.5 43 6.1 74 74 ENE 8 13 29.76 1008 10 16 0.00 0.00
11:55 pm 23:55 Clear 50 10.1 43 6 76 76 ENE 5 7 29.76 1008 10 16 0.00 0.00

Powered by AerisWeather